South Lake Tahoe, CA

6:36 AM PDT on May 24, 2017 (GMT -0700)
Lake Tahoe

Weather History for KTVL - August, 2013

Change the Weather History Date:

Sunday, August 4, 2013

  Actual Average Record
Temperature  
Mean Temperature 62 °F 62 °F  
Max Temperature 83 °F 82 °F 89 °F (1932)
Min Temperature 40 °F 42 °F 32 °F (1976)
Degree Days  
Heating Degree Days 3 4  
Month to date heating degree days 26 16  
Since 1 June heating degree days 257 464  
Since 1 July heating degree days 63 154  
Cooling Degree Days 0 1  
Month to date cooling degree days 0 4  
Year to date cooling degree days 89 23  
Since 1 June cooling degree days 89 23  
Growing Degree Days 10 (Base 50)    
Moisture  
Dew Point 35 °F    
Average Humidity 48    
Maximum Humidity 79    
Minimum Humidity 17    
Precipitation  
Precipitation 0.00 in - 0.49 in (2006)
Month to date precipitation 0.00  
Year to date precipitation 5.93  
Sea Level Pressure  
Sea Level Pressure 30.04 in    
Wind  
Wind Speed 3 mph (SSE)    
Max Wind Speed 18 mph    
Max Gust Speed 26 mph    
Visibility 10 miles    
Events      
T = Trace of Precipitation, MM = Missing Value Source: NWS Daily Summary

Daily Weather History Graph

Daily Weather History Graph

Search for Another Location

Airport or City:

Trip Planner

Search our weather history database for the weather conditions in past years. The results will help you decide how hot, cold, wet, or windy it might be!

Date:

Astronomy

Aug. 04, 2013 Rise Set
Actual Time 6:03 AM PDT 8:07 PM PDT
Civil Twilight 5:34 AM PDT 8:36 PM PDT
Nautical Twilight 4:58 AM PDT 9:12 PM PDT
Astronomical Twilight 4:19 AM PDT 9:51 PM PDT
Moon 4:09 AM PDT (8/4) 6:34 PM PDT (8/4)
Length of Visible Light 15h 02m
Length of Day
14h 03m
Waning Crescent, 4% of the Moon is Illuminated
Aug 4
Waning Crescent
Aug 6
New
Aug 14
First Quarter
Aug 20
Full
Aug 28
Last Quarter

Hourly Weather History & Observations

Time (PDT) Temp. Windchill Dew Point Humidity Pressure Visibility Wind Dir Wind Speed Gust Speed Precip Events Conditions
12:53 AM 50.0 °F - 37.0 °F 61% 30.05 in 10.0 mi Calm Calm - N/A   Clear
1:53 AM 48.0 °F - 36.0 °F 63% 30.05 in 10.0 mi Calm Calm - N/A   Clear
2:53 AM 45.0 °F - 35.1 °F 68% 30.05 in 10.0 mi Calm Calm - N/A   Clear
3:53 AM 43.0 °F 41.3 °F 35.1 °F 74% 30.06 in 10.0 mi South 3.5 mph - N/A   Clear
4:53 AM 42.1 °F - 34.0 °F 73% 30.06 in 10.0 mi Calm Calm - N/A   Clear
5:53 AM 41.0 °F - 33.1 °F 73% 30.07 in 10.0 mi Calm Calm - N/A   Clear
6:53 AM 39.9 °F - 33.1 °F 77% 30.09 in 10.0 mi Calm Calm - N/A   Clear
7:53 AM 50.0 °F - 35.1 °F 57% 30.08 in 10.0 mi South 3.5 mph - N/A   Clear
8:53 AM 63.0 °F - 30.9 °F 30% 30.05 in 10.0 mi Calm Calm - N/A   Clear
9:53 AM 69.1 °F - 37.0 °F 31% 30.04 in 10.0 mi ENE 5.8 mph - N/A   Clear
10:53 AM 73.0 °F - 37.9 °F 28% 30.03 in 10.0 mi NNE 6.9 mph - N/A   Clear
11:53 AM 77.0 °F - 37.0 °F 24% 30.02 in 10.0 mi Variable 6.9 mph - N/A   Clear
12:53 PM 79.0 °F - 35.1 °F 20% 30.02 in 10.0 mi NNE 10.4 mph 16.1 mph N/A   Clear
1:53 PM 81.0 °F - 34.0 °F 18% 30.01 in 10.0 mi NNE 8.1 mph - N/A   Clear
2:53 PM 81.0 °F - 34.0 °F 18% 30.01 in 10.0 mi Variable 3.5 mph - N/A   Clear
3:53 PM 82.0 °F - 34.0 °F 18% 30.00 in 10.0 mi Variable 4.6 mph - N/A   Clear
4:53 PM 80.1 °F - 33.1 °F 18% 30.01 in 10.0 mi South 13.8 mph - N/A   Clear
5:53 PM 77.0 °F - 35.1 °F 22% 30.03 in 10.0 mi South 16.1 mph - N/A   Clear
6:53 PM 73.9 °F - 35.1 °F 24% 30.05 in 10.0 mi South 11.5 mph - N/A   Clear
7:53 PM 69.1 °F - 36.0 °F 30% 30.06 in 10.0 mi SSW 4.6 mph - N/A   Clear
8:53 PM 66.0 °F - 36.0 °F 33% 30.04 in 10.0 mi Calm Calm - N/A   Clear
9:53 PM 62.1 °F - 37.0 °F 39% 30.05 in 10.0 mi Calm Calm - N/A   Clear
10:53 PM 55.9 °F - 36.0 °F 47% 30.06 in 10.0 mi Calm Calm - N/A   Clear
11:53 PM 53.1 °F - 36.0 °F 52% 30.07 in 10.0 mi South 4.6 mph - N/A   Clear